Torna al catalogo

DELTA 1 DEB

LostPO
NORAD 21462·DEBRIS·🇺🇸 United States

Lanciato Jun 12, 1975 da Vandenberg Space Force Base

Loading…

Prossimi Passaggi (prossime 24 ore)

TLE

ObsoletoSource: Space-Track

Epoca: Nov 4, 2015, 22:15 UTC

1 21462U 75052EW  15308.92717125 -.00000011  00000-0  00000-0 0  9998
2 21462  90.7142 329.3884 1410812 266.6328  77.3574 12.47366472117719

Traccia DELTA 1 DEB in tempo reale con AllMySat

Download on the App Store